�N����,����,�~����,�C��,���x,�C��,����,���ϕ���,�ő�u�ԕ���,�ő厞����,���˗�,�I�_���x,�n�����x,�ő啗���N��,DTYPE
"19/07/26","00:10",0.0,24.5,92.6,1004.5,290.6,0.7,1.2,309.6,0.00,23.3,26.9,"00:02:08",1
"19/07/26","00:20",0.0,24.6,92.7,1004.3,278.8,0.7,1.1,249.1,0.00,23.4,26.6,"00:14:24",1
"19/07/26","00:30",0.0,24.6,92.6,1004.5,311.5,0.8,1.4,331.2,0.00,23.4,26.8,"00:22:48",1
"19/07/26","00:40",0.0,24.7,92.6,1004.5,316.5,0.8,1.7,341.3,0.00,23.5,26.8,"00:31:20",1
"19/07/26","00:50",0.0,24.7,92.7,1004.3,321.6,1.2,2.5,346.0,0.00,23.5,26.7,"00:49:12",1
"19/07/26","01:00",0.0,24.8,92.6,1004.1,343.0,1.2,2.1,348.3,0.00,23.6,26.6,"00:51:12",1
"19/07/26","01:10",0.0,24.8,92.4,1004.1,297.7,0.8,1.3,346.0,0.00,23.5,26.5,"01:00:16",1
"19/07/26","01:20",0.0,24.8,92.4,1004.3,270.6,0.8,1.2,262.0,0.00,23.5,26.5,"01:10:32",1
"19/07/26","01:30",0.0,24.9,92.3,1004.1,278.4,0.7,1.3,293.5,0.00,23.6,26.6,"01:25:52",1
"19/07/26","01:40",0.0,25.0,92.4,1004.1,295.7,0.7,1.2,252.8,0.00,23.7,26.6,"01:34:24",1
"19/07/26","01:50",0.0,25.0,92.3,1003.8,341.8,0.7,1.4,334.9,0.00,23.7,26.5,"01:43:44",1
"19/07/26","02:00",0.0,25.1,92.5,1003.8,331.3,0.1,0.5,269.1,0.00,23.8,26.5,"01:59:28",1
"19/07/26","02:10",0.0,25.0,92.4,1004.3,311.6,0.7,1.3,328.4,0.00,23.7,26.5,"02:05:04",1
"19/07/26","02:20",0.0,25.1,92.4,1004.1,329.2,0.6,1.7,335.0,0.00,23.8,26.7,"02:17:52",1
"19/07/26","02:30",0.0,25.0,92.5,1004.1,330.4,1.1,1.4,331.2,0.00,23.7,26.3,"02:20:48",1
"19/07/26","02:40",0.0,24.9,92.6,1004.3,312.1,1.0,1.9,340.6,0.00,23.7,26.6,"02:36:56",1
"19/07/26","02:50",0.0,24.8,92.5,1003.8,300.6,0.7,1.1,306.7,0.00,23.5,26.3,"02:47:36",1
"19/07/26","03:00",0.0,24.7,92.6,1004.3,327.4,0.7,1.1,336.5,0.00,23.5,26.4,"02:59:04",1
"19/07/26","03:10",0.0,24.7,92.8,1004.3,320.8,0.7,1.0,327.8,0.00,23.5,26.4,"03:00:16",1
"19/07/26","03:20",0.0,24.6,92.8,1004.1,282.9,0.5,0.9,322.2,0.00,23.4,26.2,"03:19:36",1
"19/07/26","03:30",0.0,24.5,92.8,1004.5,289.2,0.7,0.9,303.1,0.00,23.3,26.2,"03:23:52",1
"19/07/26","03:40",0.0,24.5,92.9,1003.8,299.2,0.8,1.2,291.9,0.00,23.3,26.3,"03:33:20",1
"19/07/26","03:50",0.0,24.3,92.7,1003.8,286.9,0.6,1.1,282.4,0.00,23.1,26.2,"03:41:28",1
"19/07/26","04:00",0.0,24.3,93.2,1003.8,299.4,0.6,1.1,328.8,0.00,23.2,26.2,"03:56:40",1
"19/07/26","04:10",0.0,24.2,93.2,1004.1,270.2,0.6,0.9,302.4,0.00,23.1,26.0,"04:08:08",1
"19/07/26","04:20",0.0,24.1,93.2,1004.1,290.0,0.7,1.3,308.0,0.00,23.0,25.9,"04:18:40",1
"19/07/26","04:30",0.0,24.1,93.3,1004.1,306.0,0.8,1.4,339.8,0.00,23.0,26.1,"04:20:02",1
"19/07/26","04:40",0.0,24.0,93.5,1004.1,335.9,1.2,1.9,335.9,0.00,22.9,25.8,"04:32:24",1
"19/07/26","04:50",0.0,23.9,93.8,1004.3,312.3,0.7,1.2,329.9,0.00,22.9,25.8,"04:41:44",1
"19/07/26","05:00",0.0,23.8,93.7,1004.5,289.5,0.6,0.9,311.3,0.00,22.8,25.8,"04:59:52",1
"19/07/26","05:10",0.0,23.8,93.9,1004.3,308.6,1.0,1.3,319.5,0.00,22.8,25.9,"05:09:44",1
"19/07/26","05:20",0.0,23.9,94.1,1004.5,320.6,0.7,1.3,319.5,0.00,22.9,26.1,"05:10:16",1
"19/07/26","05:30",0.0,23.8,94.0,1004.5,300.8,0.8,1.1,316.3,0.00,22.8,25.8,"05:26:48",1
"19/07/26","05:40",0.0,23.8,94.1,1004.5,326.6,0.8,1.2,325.3,0.00,22.8,25.8,"05:35:04",1
"19/07/26","05:50",0.0,23.7,94.2,1004.8,315.4,0.8,1.2,320.4,0.00,22.8,25.7,"05:41:12",1
"19/07/26","06:00",0.0,23.8,94.3,1004.5,339.0,1.1,1.9,342.8,0.00,22.9,25.8,"05:56:40",1
"19/07/26","06:10",0.0,23.9,94.5,1004.5,325.1,1.1,1.9,346.1,0.00,23.0,25.9,"06:02:16",1
"19/07/26","06:20",0.0,24.0,94.5,1004.3,275.2,0.7,1.0,272.1,0.00,23.1,25.8,"06:14:32",1
"19/07/26","06:30",0.0,24.2,94.4,1004.5,303.1,0.7,1.6,335.3,0.01,23.3,25.7,"06:23:36",1
"19/07/26","06:40",0.0,24.4,94.1,1004.5,319.4,0.7,1.3,359.7,0.01,23.4,25.9,"06:39:44",1
"19/07/26","06:50",0.0,24.5,94.3,1004.5,341.4,1.1,1.7,352.7,0.02,23.6,25.7,"06:43:04",1
"19/07/26","07:00",0.0,25.0,93.8,1005.0,328.0,1.0,1.6,340.3,0.04,24.0,25.7,"06:51:20",1
"19/07/26","07:10",0.0,25.6,92.2,1004.8,283.5,0.3,0.8,257.2,0.06,24.3,25.8,"07:08:56",1
"19/07/26","07:20",0.0,25.6,92.1,1004.8,236.5,0.3,1.0,253.1,0.08,24.3,25.5,"07:17:04",1
"19/07/26","07:30",0.0,26.6,89.9,1005.2,323.6,0.6,1.4,343.7,0.10,24.8,26.1,"07:29:20",1
"19/07/26","07:40",0.0,27.2,85.5,1005.0,69.6,0.5,1.2,352.6,0.12,24.6,26.0,"07:30:16",1
"19/07/26","07:50",0.0,27.8,82.2,1004.3,312.0,0.3,1.1,349.3,0.14,24.5,26.2,"07:49:20",1
"19/07/26","08:00",0.0,27.6,80.5,1004.8,85.8,0.6,1.6,106.6,0.16,24.0,26.3,"07:57:28",1
"19/07/26","08:10",0.0,28.4,80.2,1004.8,143.5,0.5,1.0,218.4,0.19,24.7,26.3,"08:07:12",1
"19/07/26","08:20",0.0,28.4,78.7,1005.0,153.8,0.6,1.7,122.4,0.21,24.4,26.3,"08:13:36",1
"19/07/26","08:30",0.0,29.0,76.6,1005.0,107.6,0.6,2.2,114.2,0.24,24.5,26.6,"08:25:52",1
"19/07/26","08:40",0.0,29.1,74.6,1005.5,92.5,1.0,2.7,121.6,0.27,24.2,26.7,"08:31:04",1
"19/07/26","08:50",0.0,29.3,75.0,1005.2,119.9,1.1,2.1,110.2,0.29,24.4,26.8,"08:41:04",1
"19/07/26","09:00",0.0,29.3,73.4,1005.2,87.1,1.2,3.4,112.9,0.29,24.1,27.0,"08:56:24",1
"19/07/26","09:10",0.0,29.4,73.4,1005.2,122.5,1.3,2.7,115.9,0.33,24.2,27.0,"09:06:32",1
"19/07/26","09:20",0.0,29.8,73.6,1005.7,130.1,1.1,2.5,36.7,0.24,24.6,27.3,"09:12:40",1
"19/07/26","09:30",0.0,29.8,72.2,1005.0,147.9,1.7,4.0,134.7,0.36,24.3,27.4,"09:24:56",1
"19/07/26","09:40",0.0,29.5,71.1,1005.0,141.1,1.0,2.8,131.7,0.21,23.7,27.6,"09:32:24",1
"19/07/26","09:50",0.0,30.4,69.0,1005.2,97.3,1.3,3.2,67.1,0.40,24.1,27.8,"09:48:40",1
"19/07/26","10:00",0.0,30.0,71.4,1005.2,126.0,1.2,3.2,135.8,0.22,24.3,28.0,"09:53:20",1
"19/07/26","10:10",0.0,29.5,73.2,1004.8,144.8,1.5,2.9,127.0,0.12,24.2,27.9,"10:03:04",1
"19/07/26","10:20",0.0,29.7,71.2,1004.3,206.1,2.0,4.5,31.0,0.21,24.0,28.1,"10:11:36",1
"19/07/26","10:30",0.0,29.8,71.0,1004.1,170.0,1.1,2.7,232.2,0.10,24.0,28.0,"10:27:36",1
"19/07/26","10:40",0.0,29.6,71.6,1003.8,133.8,1.5,3.2,113.9,0.15,24.0,28.0,"10:35:20",1
"19/07/26","10:50",0.0,30.1,68.6,1003.6,160.3,0.8,2.6,139.6,0.15,23.7,27.8,"10:44:24",1
"19/07/26","11:00",0.0,30.5,67.8,1004.1,157.0,1.1,2.8,228.2,0.23,23.9,28.2,"10:53:36",1
"19/07/26","11:10",0.0,30.3,68.4,1003.8,110.0,0.7,1.9,117.9,0.17,23.9,28.2,"11:01:28",1
"19/07/26","11:20",0.0,30.1,68.2,1003.8,147.4,1.2,2.5,149.6,0.14,23.6,28.2,"11:12:24",1
"19/07/26","11:30",0.0,30.4,69.7,1003.8,135.1,1.0,2.4,114.3,0.12,24.3,28.1,"11:23:20",1
"19/07/26","11:40",0.0,30.9,65.7,1004.1,141.1,1.3,2.2,169.3,0.35,23.8,28.4,"11:37:52",1
"19/07/26","11:50",0.0,31.1,63.9,1003.8,161.4,1.3,3.3,224.7,0.18,23.5,28.5,"11:48:32",1
"19/07/26","12:00",0.0,31.4,62.0,1003.8,166.8,1.5,2.8,199.9,0.20,23.3,28.3,"11:59:28",1
"19/07/26","12:10",0.0,32.2,59.8,1004.1,165.8,1.8,4.4,211.9,0.52,23.4,28.5,"12:06:40",1
"19/07/26","12:20",0.0,31.5,62.3,1003.6,157.8,2.0,4.1,170.5,0.25,23.5,28.6,"12:11:04",1
"19/07/26","12:30",0.0,32.7,58.2,1004.1,145.0,1.3,3.2,123.5,0.52,23.5,29.0,"12:27:36",1
"19/07/26","12:40",0.0,31.9,58.1,1003.8,167.8,2.1,4.5,179.8,0.29,22.7,29.1,"12:39:04",1
"19/07/26","12:50",0.0,31.4,60.0,1003.6,139.5,1.8,3.9,141.6,0.17,22.7,28.9,"12:40:32",1
"19/07/26","13:00",0.0,32.6,58.9,1003.1,127.8,1.7,3.3,141.0,0.32,23.6,29.1,"12:59:36",1
"19/07/26","13:10",0.0,32.9,57.1,1003.1,132.8,1.6,4.0,109.4,0.64,23.3,29.2,"13:07:36",1
"19/07/26","13:20",0.0,32.8,58.4,1004.1,87.5,1.7,3.9,36.7,0.54,23.6,29.4,"13:15:28",1
"19/07/26","13:30",0.0,31.9,62.8,1003.1,29.8,1.7,3.7,9.3,0.25,24.0,29.5,"13:29:52",1
"19/07/26","13:40",0.0,31.9,61.9,1002.9,101.9,1.2,2.8,348.7,0.23,23.7,29.2,"13:31:28",1
"19/07/26","13:50",0.0,31.5,61.8,1002.6,100.3,1.5,3.3,112.8,0.06,23.3,29.2,"13:42:24",1
"19/07/26","14:00",0.0,31.6,62.2,1001.9,132.6,1.7,5.4,193.9,0.11,23.5,29.3,"13:58:40",1
"19/07/26","14:10",0.0,31.4,62.1,1001.9,127.8,1.8,4.4,143.0,0.14,23.3,29.4,"14:01:44",1
"19/07/26","14:20",0.0,31.9,59.3,1001.5,109.0,2.0,4.0,186.7,0.12,23.0,29.0,"14:10:32",1
"19/07/26","14:30",0.0,31.5,60.4,1001.7,104.2,1.8,3.7,95.2,0.08,22.9,29.0,"14:28:56",1
"19/07/26","14:40",0.0,31.5,61.3,1001.0,106.6,1.6,3.3,109.4,0.08,23.2,29.1,"14:33:52",1
"19/07/26","14:50",0.0,31.5,61.3,1001.2,103.3,1.7,5.7,115.8,0.10,23.2,29.0,"14:44:08",1
"19/07/26","15:00",0.0,31.3,59.9,1001.2,118.8,1.7,3.9,129.7,0.08,22.6,28.8,"14:54:56",1
"19/07/26","15:10",0.0,31.4,59.9,1001.0,123.6,2.0,3.7,110.5,0.05,22.7,28.8,"15:02:08",1
"19/07/26","15:20",0.0,31.5,59.7,1000.8,111.2,2.1,5.0,124.4,0.06,22.8,28.8,"15:10:16",1
"19/07/26","15:30",0.0,31.4,59.9,1001.0,94.8,2.3,4.9,109.3,0.06,22.7,28.7,"15:25:12",1
"19/07/26","15:40",0.0,31.2,60.4,1000.5,108.9,2.7,6.6,107.7,0.06,22.7,28.6,"15:34:40",1
"19/07/26","15:50",0.0,31.2,60.2,1000.5,105.5,2.6,5.4,122.7,0.06,22.6,28.2,"15:40:08",1
"19/07/26","16:00",0.0,30.9,61.5,1001.0,110.2,2.2,4.4,116.1,0.08,22.7,28.4,"15:55:28",1
"19/07/26","16:10",0.0,31.8,59.0,1001.0,100.2,2.7,4.8,48.3,0.24,22.8,28.4,"16:06:40",1
"19/07/26","16:20",0.0,31.2,60.2,1001.2,108.6,2.1,4.7,113.5,0.16,22.6,28.4,"16:14:24",1
"19/07/26","16:30",0.0,31.9,56.4,1001.7,101.7,2.6,5.5,95.3,0.32,22.2,28.5,"16:28:24",1
"19/07/26","16:40",0.0,31.3,56.8,1001.5,99.6,2.5,4.7,100.8,0.06,21.7,28.4,"16:33:12",1
"19/07/26","16:50",0.0,31.8,57.9,1001.2,107.1,2.0,3.9,124.0,0.15,22.5,28.4,"16:40:08",1
"19/07/26","17:00",0.0,31.3,56.0,1001.5,107.9,2.8,4.9,100.8,0.09,21.5,28.4,"16:51:28",1
"19/07/26","17:10",0.0,31.1,58.2,1001.2,100.8,2.7,4.2,117.8,0.08,22.0,28.4,"17:04:48",1
"19/07/26","17:20",0.0,31.5,57.4,1001.2,101.0,2.1,4.1,114.8,0.20,22.1,28.2,"17:19:20",1
"19/07/26","17:30",0.0,31.0,59.3,1001.5,106.2,2.3,4.1,106.0,0.10,22.2,28.1,"17:22:32",1
"19/07/26","17:40",0.0,30.6,61.0,1001.0,109.2,2.0,4.3,116.6,0.07,22.3,28.3,"17:35:52",1
"19/07/26","17:50",0.0,30.6,62.2,1000.8,98.0,1.6,2.9,98.4,0.05,22.6,28.3,"17:41:04",1
"19/07/26","18:00",0.0,30.5,61.7,1000.8,99.8,2.1,4.2,106.3,0.03,22.4,28.1,"17:57:28",1
"19/07/26","18:10",0.0,30.5,62.8,1000.8,95.5,1.8,4.4,105.3,0.02,22.6,28.2,"18:01:44",1
"19/07/26","18:20",0.0,30.3,62.2,1001.0,89.7,1.7,3.6,95.2,0.01,22.3,28.1,"18:15:36",1
"19/07/26","18:30",0.0,30.2,62.6,1001.0,104.0,2.0,3.9,126.9,0.03,22.3,28.2,"18:28:24",1
"19/07/26","18:40",0.0,30.2,62.4,1001.0,92.4,1.5,3.7,47.7,0.02,22.3,28.1,"18:38:08",1
"19/07/26","18:50",0.0,29.9,62.2,1001.0,98.4,1.6,3.3,90.4,0.01,21.9,28.0,"18:49:36",1
"19/07/26","19:00",0.0,29.7,63.1,1001.0,96.6,2.1,4.0,143.2,0.00,22.0,28.0,"18:58:32",1
"19/07/26","19:10",0.0,29.5,64.7,1001.0,100.5,2.6,4.4,111.8,0.00,22.2,27.8,"19:02:48",1
"19/07/26","19:20",0.0,29.2,66.0,1000.3,99.8,1.3,3.7,112.7,0.00,22.2,28.0,"19:14:08",1
"19/07/26","19:30",0.0,28.8,66.4,1000.3,122.5,1.7,3.9,22.6,0.00,22.0,27.7,"19:23:52",1
"19/07/26","19:40",0.0,28.8,67.4,1000.3,99.2,1.6,3.7,122.6,0.00,22.2,27.7,"19:37:52",1
"19/07/26","19:50",0.0,28.6,67.9,1001.0,83.0,1.1,3.1,85.5,0.00,22.1,27.7,"19:46:00",1
"19/07/26","20:00",0.0,28.2,68.4,1001.2,97.9,1.1,3.5,123.1,0.00,21.9,27.4,"19:58:32",1
"19/07/26","20:10",0.0,28.2,69.4,1001.2,109.3,1.5,3.5,109.4,0.00,22.1,27.4,"20:03:36",1
"19/07/26","20:20",0.0,28.0,69.5,1001.0,106.0,1.5,3.1,167.9,0.00,21.9,27.4,"20:14:40",1
"19/07/26","20:30",0.0,28.0,70.2,1001.2,73.0,1.2,3.1,47.8,0.00,22.1,27.3,"20:29:20",1
"19/07/26","20:40",0.0,27.5,72.0,1001.2,90.6,1.3,2.9,111.5,0.00,22.0,27.0,"20:32:24",1
"19/07/26","20:50",0.0,27.2,73.2,1001.2,114.8,1.8,3.7,120.4,0.00,22.0,27.1,"20:46:08",1
"19/07/26","21:00",0.0,27.0,74.7,1001.7,106.9,1.8,3.7,83.7,0.00,22.2,27.1,"20:53:04",1
"19/07/26","21:10",0.0,26.8,76.0,1001.7,110.3,1.8,4.9,91.5,0.00,22.3,26.9,"21:09:32",1
"19/07/26","21:20",0.6,26.2,79.2,1001.7,138.4,1.5,4.1,131.8,0.00,22.4,26.8,"21:13:28",1
"19/07/26","21:30",0.2,25.6,82.7,1001.5,125.4,0.6,2.0,32.6,0.00,22.5,26.9,"21:26:00",1
"19/07/26","21:40",0.0,25.4,84.4,1001.5,9.7,0.6,1.6,5.7,0.00,22.6,26.9,"21:34:40",1
"19/07/26","21:50",0.0,25.3,86.0,1001.2,349.0,0.6,1.3,332.0,0.00,22.8,26.7,"21:44:08",1
"19/07/26","22:00",0.0,25.0,87.3,1001.5,325.9,0.6,1.7,299.9,0.00,22.8,26.6,"21:57:52",1
"19/07/26","22:10",0.0,24.8,88.1,1001.5,263.9,0.3,1.4,0.3,0.00,22.7,26.6,"22:01:28",1
"19/07/26","22:20",0.0,24.8,88.9,1001.7,307.0,0.7,1.6,343.2,0.00,22.9,26.6,"22:18:48",1
"19/07/26","22:30",0.0,24.7,89.5,1001.7,312.1,0.5,1.0,299.1,0.00,22.9,26.6,"22:20:40",1
"19/07/26","22:40",0.0,24.8,90.2,1001.2,322.6,0.3,1.0,340.7,0.00,23.1,26.7,"22:36:00",1
"19/07/26","22:50",0.0,24.7,90.2,1001.5,339.9,0.7,1.7,336.5,0.00,23.0,26.4,"22:46:32",1
"19/07/26","23:00",0.0,24.6,90.7,1001.2,285.0,0.7,1.2,328.4,0.00,23.0,26.6,"22:55:12",1
"19/07/26","23:10",0.0,24.5,90.3,1001.5,297.2,0.7,1.7,117.7,0.00,22.8,26.5,"23:09:12",1
"19/07/26","23:20",0.0,24.7,90.1,1001.2,125.6,0.5,1.9,124.9,0.00,23.0,26.4,"23:16:40",1
"19/07/26","23:30",0.0,24.8,89.9,1001.2,190.0,0.5,1.2,162.4,0.00,23.1,26.5,"23:20:02",1
"19/07/26","23:40",0.0,25.1,89.4,1000.8,96.0,1.0,2.6,124.1,0.00,23.3,26.5,"23:32:48",1
"19/07/26","23:50",0.0,25.3,88.5,1001.0,46.9,0.6,1.3,105.3,0.00,23.3,26.2,"23:46:32",1
"19/07/26","24:00",0.0,25.4,87.9,1001.0,309.3,0.6,1.3,278.7,0.00,23.3,26.2,"23:58:08",1
